This is the latest recevied weather packets stored in our database for station/object WA2TQI. If no packets are shown the sender has not sent any weather packets the latest 10 day(s).
| Time | Temp. | Humidity | Pressure | Rain* | Wind** | Luminosity | Snow |
|---|---|---|---|---|---|---|---|
| 1777991119 | 23.33° C | 58% | 1012.9 hPa | 0 mm | - | - | - |
| 1777990816 | 23.89° C | 57% | 1012.9 hPa | 0 mm | - | - | - |
| 1777990514 | 23.33° C | 58% | 1013 hPa | 0 mm | - | - | - |
| 1777989907 | 23.33° C | 59% | 1013.1 hPa | 0 mm | - | - | - |
| 1777989604 | 23.89° C | 57% | 1012.9 hPa | 0 mm | - | - | - |
| 1777989300 | 23.33° C | 59% | 1012.9 hPa | 0 mm | - | - | - |
| 1777988996 | 22.78° C | 59% | 1013 hPa | 0 mm | - | - | - |
| 1777988693 | 23.33° C | 58% | 1013.1 hPa | 0 mm | - | - | - |
| 1777988389 | 22.78° C | 59% | 1012.9 hPa | 0 mm | - | - | - |
| 1777988087 | 22.22° C | 60% | 1013 hPa | 0 mm | - | - | - |
| 1777987782 | 22.22° C | 60% | 1013.1 hPa | 0 mm | - | - | - |
| 1777987479 | 22.22° C | 60% | 1013.2 hPa | 0 mm | - | - | - |
| 1777987177 | 21.67° C | 61% | 1012.9 hPa | 0 mm | - | - | - |
| 1777986874 | 22.22° C | 61% | 1013.1 hPa | 0 mm | - | - | - |
| 1777986572 | 21.67° C | 61% | 1013 hPa | 0 mm | - | - | - |
| 1777986270 | 21.67° C | 62% | 1012.9 hPa | 0 mm | - | - | - |
| 1777985966 | 21.11° C | 64% | 1013 hPa | 0 mm | - | - | - |
| 1777985664 | 21.11° C | 64% | 1012.8 hPa | 0 mm | - | - | - |
| 1777985360 | 21.11° C | 64% | 1012.9 hPa | 0 mm | - | - | - |
| 1777985057 | 20.56° C | 65% | 1012.9 hPa | 0 mm | - | - | - |
| 1777984753 | 20.56° C | 64% | 1012.8 hPa | 0 mm | - | - | - |
| 1777984450 | 20.56° C | 65% | 1012.9 hPa | 0 mm | - | - | - |
| 1777984146 | 20° C | 67% | 1012.8 hPa | 0 mm | - | - | - |
| 1777983844 | 19.44° C | 66% | 1012.9 hPa | 0 mm | - | - | - |
| 1777983540 | 19.44° C | 68% | 1012.8 hPa | 0 mm | - | - | - |
* Rain latest hour (hover to see other rain measurements)
** Current wind speed in m/s (hover to see current wind gust speed)